Weather History for West Palm Beach, FL

Change the Weather History Date:

Monday, May 6, 2013

  Actual Average Record
Temperature  
Mean Temperature 70 °F 77 °F  
Max Temperature 81 °F 84 °F 94 °F (1906)
Min Temperature 58 °F 69 °F 49 °F (1921)
Degree Days  
Heating Degree Days 0 0  
Month to date heating degree days 0 0  
Since 1 July heating degree days 164 233  
Cooling Degree Days 5 12  
Month to date cooling degree days 52 68  
Year to date cooling degree days 879 763  
Growing Degree Days 19 (Base 50)    
Moisture  
Dew Point 58 °F    
Average Humidity 68    
Maximum Humidity 87    
Minimum Humidity 48    
Precipitation  
Precipitation T in 0.09 in 2.07 in (1890)
Month to date precipitation 3.80 0.50  
Year to date precipitation 13.08 14.70  
Snow  
Snow 0.00 in - - ()
Month to date snowfall 0.0  
Since 1 July snowfall 0.0  
Snow Depth 0.00 in    
Sea Level Pressure  
Sea Level Pressure 29.96 in    
Wind  
Wind Speed 6 mph (West)    
Max Wind Speed 14 mph    
Max Gust Speed 21 mph    
Visibility 10 miles    
Events Rain    
T = Trace of Precipitation, MM = Missing Value Source: NWS Daily Summary

Daily Weather History Graph

Daily Weather History Graph

Search for Another Location

Airport:

Trip Planner

Search our weather history database for the weather conditions in past years. The results will help you decide how hot, cold, wet, or windy it might be!

Date:

Astronomy

May. 06, 2013 Rise Set
Actual Time 6:38 AM EDT 7:55 PM EDT
Civil Twilight 6:13 AM EDT 8:20 PM EDT
Nautical Twilight 5:44 AM EDT 8:50 PM EDT
Astronomical Twilight 5:14 AM EDT 9:20 PM EDT
Moon 4:21 AM EDT (5/6) 5:08 PM EDT (5/6)
Length of Visible Light 14h 06m
Length of Day
13h 17m
Waning Crescent, 11% of the Moon is Illuminated
May 6
Waning Crescent
May 9
New
May 18
First Quarter
May 25
Full
May 31
Last Quarter

Hourly Weather History & Observations

Time (EDT) Temp. Heat Index Dew Point Humidity Pressure Visibility Wind Dir Wind Speed Gust Speed Precip Events Conditions
12:53 AM 64.9 °F - 51.1 °F 61% 29.94 in 10.0 mi NW 8.1 mph - N/A   Clear
1:53 AM 62.1 °F - 52.0 °F 70% 29.93 in 10.0 mi NW 5.8 mph - N/A   Clear
2:53 AM 61.0 °F - 53.1 °F 75% 29.92 in 10.0 mi NNW 3.5 mph - N/A   Clear
3:53 AM 60.1 °F - 55.0 °F 83% 29.93 in 10.0 mi NW 3.5 mph - N/A   Partly Cloudy
4:53 AM 61.0 °F - 55.9 °F 83% 29.94 in 10.0 mi Calm Calm - N/A   Partly Cloudy
5:53 AM 59.0 °F - 55.9 °F 90% 29.96 in 10.0 mi Calm Calm - N/A   Partly Cloudy
6:53 AM 63.9 °F - 57.6 °F 80% 29.98 in 10.0 mi West 4.6 mph - N/A   Clear
7:53 AM 66.4 °F - 57.7 °F 74% 30.00 in 10.0 mi West 3.5 mph - N/A   Clear
8:53 AM 70.0 °F - 60.1 °F 71% 30.01 in 10.0 mi West 5.8 mph - N/A   Partly Cloudy
9:53 AM 73.0 °F - 60.1 °F 64% 30.01 in 10.0 mi West 6.9 mph - N/A   Partly Cloudy
10:53 AM 75.9 °F - 61.0 °F 60% 30.01 in 10.0 mi WNW 3.5 mph - N/A   Partly Cloudy
11:53 AM 75.9 °F - 59.0 °F 56% 30.00 in 10.0 mi West 11.5 mph 16.1 mph N/A   Scattered Clouds
12:53 PM 78.1 °F - 61.0 °F 56% 29.99 in 10.0 mi WNW 9.2 mph 20.7 mph N/A   Mostly Cloudy
1:53 PM 81.0 °F 81.6 °F 60.1 °F 49% 29.97 in 10.0 mi WSW 10.4 mph 20.7 mph N/A   Mostly Cloudy
2:53 PM 78.1 °F - 57.9 °F 50% 29.95 in 10.0 mi West 8.1 mph - N/A   Mostly Cloudy
3:53 PM 81.0 °F 81.7 °F 61.0 °F 50% 29.94 in 10.0 mi WSW 8.1 mph - N/A   Mostly Cloudy
4:53 PM 75.0 °F - 63.0 °F 66% 29.93 in 10.0 mi SSE 8.1 mph - 0.00 in Rain Light Rain
5:53 PM 75.9 °F - 60.1 °F 58% 29.93 in 10.0 mi ESE 5.8 mph - 0.00 in   Mostly Cloudy
6:53 PM 75.9 °F - 59.0 °F 56% 29.93 in 10.0 mi South 9.2 mph - N/A   Mostly Cloudy
7:53 PM 75.0 °F - 59.0 °F 57% 29.95 in 10.0 mi SSW 8.1 mph - N/A   Mostly Cloudy
8:53 PM 75.0 °F - 60.1 °F 60% 29.97 in 10.0 mi South 4.6 mph - N/A   Mostly Cloudy
9:53 PM 73.9 °F - 61.0 °F 64% 29.98 in 10.0 mi West 3.5 mph - N/A   Mostly Cloudy
10:53 PM 70.0 °F - 60.1 °F 71% 29.99 in 10.0 mi WNW 4.6 mph - N/A   Partly Cloudy
11:53 PM 69.1 °F - 60.1 °F 73% 29.99 in 10.0 mi West 5.8 mph - N/A   Partly Cloudy